Weather History for Chanute, KS

Change the Weather History Date:

Sunday, January 27, 2013

  Actual Average Record
Temperature  
Mean Temperature 53 °F 33 °F  
Max Temperature 63 °F 43 °F 70 °F (1934)
Min Temperature 43 °F 23 °F -10 °F (1963)
Degree Days  
Heating Degree Days 12 32  
Month to date heating degree days 797 884  
Since 1 July heating degree days 2200 2677  
Cooling Degree Days 0 0  
Month to date cooling degree days 0 0  
Year to date cooling degree days 0 0  
Growing Degree Days 3 (Base 50)    
Moisture  
Dew Point 46 °F    
Average Humidity 71    
Maximum Humidity 93    
Minimum Humidity 49    
Precipitation  
Precipitation T in 0.04 in 1.09 in (1949)
Month to date precipitation 0.40 1.07  
Year to date precipitation 0.40 1.07  
Sea Level Pressure  
Sea Level Pressure 29.91 in    
Wind  
Wind Speed 19 mph (South)    
Max Wind Speed 31 mph    
Max Gust Speed 41 mph    
Visibility 9 miles    
Events Rain    
T = Trace of Precipitation, MM = Missing Value Source: NWS Daily Summary

Daily Weather History Graph

Daily Weather History Graph

Search for Another Location

Airport:

Trip Planner

Search our weather history database for the weather conditions in past years. The results will help you decide how hot, cold, wet, or windy it might be!

Date:

Astronomy

Jan. 27, 2013 Rise Set
Actual Time 7:29 AM CST 5:40 PM CST
Civil Twilight 7:01 AM CST 6:08 PM CST
Nautical Twilight 6:29 AM CST 6:40 PM CST
Astronomical Twilight 5:58 AM CST 7:11 PM CST
Moon 6:33 PM CST 7:24 AM CST
Length of Visible Light 11h 06m
Length of Day
10h 11m
Full, 100% of the Moon is Illuminated
Jan 27
Full
Feb 3
Last Quarter
Feb 10
New
Feb 17
First Quarter
Feb 25
Full

Hourly Weather History & Observations

Time (CST) Temp. Windchill Dew Point Humidity Pressure Visibility Wind Dir Wind Speed Gust Speed Precip Events Conditions
12:48 AM 44.6 °F 39.2 °F 33.8 °F 66% 30.08 in 10.0 mi South 10.4 mph - 0.00 in Rain Light Rain
12:52 AM 43.0 °F 37.2 °F 34.0 °F 71% 30.08 in 10.0 mi SSE 10.4 mph - 0.00 in Rain Light Rain
1:52 AM 44.1 °F 39.0 °F 32.0 °F 63% 30.05 in 10.0 mi SSE 9.2 mph - 0.00 in Rain Light Rain
2:25 AM 44.6 °F 37.8 °F 32.0 °F 61% 29.99 in 10.0 mi SE 15.0 mph - 0.00 in Rain Light Rain
2:52 AM 44.1 °F 38.6 °F 33.1 °F 65% 30.02 in 10.0 mi SSE 10.4 mph 19.6 mph 0.00 in Rain Light Rain
3:25 AM 44.6 °F 39.7 °F 33.8 °F 66% 30.03 in 10.0 mi South 9.2 mph - 0.00 in   Overcast
3:52 AM 44.1 °F 38.6 °F 35.1 °F 71% 30.01 in 10.0 mi SSE 10.4 mph - 0.00 in Rain Light Rain
4:52 AM 44.1 °F 37.7 °F 36.0 °F 73% 30.00 in 10.0 mi SSE 12.7 mph - 0.00 in   Overcast
5:26 AM 44.6 °F 37.4 °F 37.4 °F 76% 29.97 in 10.0 mi SSE 16.1 mph - N/A   Overcast
5:52 AM 45.0 °F 38.5 °F 37.9 °F 76% 29.97 in 10.0 mi SSE 13.8 mph 21.9 mph 0.00 in Rain Light Rain
6:52 AM 46.0 °F 39.3 °F 41.0 °F 83% 29.96 in 9.0 mi South 16.1 mph - 0.00 in   Overcast
7:15 AM 46.4 °F 39.2 °F 42.8 °F 87% 29.96 in 9.0 mi South 18.4 mph - N/A   Overcast
7:52 AM 46.9 °F - 44.1 °F 90% 29.95 in 6.0 mi South 19.6 mph 25.3 mph N/A   Overcast
8:52 AM 48.0 °F - 45.0 °F 89% 29.94 in 6.0 mi South 23.0 mph 26.5 mph N/A   Overcast
9:52 AM 48.9 °F - 46.0 °F 90% 29.92 in 7.0 mi South 24.2 mph 32.2 mph N/A   Overcast
10:52 AM 51.1 °F - 46.9 °F 86% 29.91 in 6.0 mi South 25.3 mph 34.5 mph N/A   Overcast
11:52 AM 53.1 °F - 48.9 °F 86% 29.89 in 6.0 mi South 23.0 mph 31.1 mph N/A   Overcast
12:36 PM 55.4 °F - 50.0 °F 82% 29.86 in 9.0 mi South 27.6 mph 35.7 mph N/A   Overcast
12:52 PM 57.0 °F - 50.0 °F 77% 29.85 in 10.0 mi South 23.0 mph 36.8 mph N/A   Overcast
1:38 PM 59.0 °F - 51.8 °F 77% 29.83 in 10.0 mi South 24.2 mph 34.5 mph N/A   Overcast
1:52 PM 57.9 °F - 50.0 °F 75% 29.82 in 10.0 mi South 24.2 mph 35.7 mph N/A   Overcast
2:52 PM 62.1 °F - 51.1 °F 67% 29.81 in 10.0 mi South 24.2 mph 31.1 mph N/A   Mostly Cloudy
3:37 PM 62.6 °F - 51.8 °F 68% 29.81 in 10.0 mi South 24.2 mph 32.2 mph N/A   Scattered Clouds
3:52 PM 63.0 °F - 51.1 °F 65% 29.80 in 10.0 mi South 29.9 mph 34.5 mph N/A   Partly Cloudy
4:28 PM 60.8 °F - 51.8 °F 72% 29.81 in 10.0 mi South 21.9 mph 33.4 mph N/A   Mostly Cloudy
4:52 PM 60.1 °F - 52.0 °F 75% 29.81 in 10.0 mi South 24.2 mph 32.2 mph N/A   Overcast
5:52 PM 60.1 °F - 52.0 °F 75% 29.82 in 10.0 mi South 17.3 mph 24.2 mph N/A   Overcast
6:52 PM 59.0 °F - 53.1 °F 81% 29.83 in 10.0 mi South 17.3 mph 27.6 mph N/A   Overcast
7:52 PM 57.9 °F - 53.1 °F 84% 29.84 in 9.0 mi South 21.9 mph 27.6 mph N/A   Overcast
8:25 PM 59.0 °F - 53.6 °F 82% 29.84 in 8.0 mi South 16.1 mph 25.3 mph N/A   Overcast
8:52 PM 59.0 °F - 54.0 °F 83% 29.84 in 8.0 mi South 20.7 mph 27.6 mph N/A   Overcast
9:52 PM 60.1 °F - 55.0 °F 83% 29.83 in 9.0 mi South 19.6 mph 27.6 mph N/A   Overcast
10:52 PM 60.1 °F - 55.9 °F 86% 29.83 in 9.0 mi South 19.6 mph 28.8 mph N/A   Overcast
11:52 PM 59.0 °F - 55.0 °F 87% 29.83 in 8.0 mi North - - N/A   Overcast